Date Time,Air Temp,Sky Temp,Clarity,Light Level,Rain Sensor,Readings
2012-06-24 00:00:25,18.5,14.8,3.7,0.0,24.9,112
2012-06-24 00:05:25,18.5,14.5,4.1,0.0,23.0,111
2012-06-24 00:10:25,18.5,14.0,4.5,0.0,15.8,111
2012-06-24 00:15:25,18.4,14.4,4.0,0.0,21.6,111
2012-06-24 00:20:25,18.5,15.9,2.6,0.0,23.5,112
2012-06-24 00:25:25,18.6,15.4,3.2,0.0,23.3,111
2012-06-24 00:30:25,18.7,15.9,2.7,0.0,24.9,111
2012-06-24 00:35:25,18.7,13.8,4.9,0.0,25.2,111
2012-06-24 00:40:25,18.7,15.4,3.4,0.0,26.1,112
2012-06-24 00:45:25,18.8,15.1,3.7,0.0,24.6,111
2012-06-24 00:50:25,18.7,15.6,3.0,0.0,24.6,112
2012-06-24 00:55:25,18.6,11.0,7.6,0.0,12.9,111
2012-06-24 01:00:25,18.3,11.6,6.7,0.0,7.7,111
2012-06-24 01:05:25,17.8,10.9,6.9,0.0,12.0,111
2012-06-24 01:10:25,18.2,15.5,2.7,0.0,29.1,112
2012-06-24 01:15:25,18.5,14.6,3.9,0.0,26.6,112
2012-06-24 01:20:25,18.6,14.0,4.6,0.0,20.2,111
2012-06-24 01:25:25,18.6,13.7,4.8,0.0,17.5,111
2012-06-24 01:30:25,18.6,16.3,2.3,0.0,28.7,112
2012-06-24 01:35:25,18.8,15.0,3.8,0.0,28.6,110
2012-06-24 01:40:25,18.8,14.2,4.6,0.0,29.2,111
2012-06-24 01:45:26,18.9,13.6,5.3,0.0,29.7,112
2012-06-24 01:50:26,18.9,14.0,4.8,0.0,30.8,111
2012-06-24 01:55:26,18.9,15.5,3.4,0.0,27.0,112
2012-06-24 02:00:26,18.9,14.2,4.7,0.0,18.9,111
2012-06-24 02:05:26,18.8,13.4,5.4,0.0,13.2,112
2012-06-24 02:10:26,18.3,13.3,5.0,0.0,8.3,111
2012-06-24 02:15:26,18.5,14.1,4.4,0.0,10.2,111
2012-06-24 02:20:26,18.6,14.9,3.7,0.0,15.6,111
2012-06-24 02:25:26,18.7,14.6,4.1,0.0,16.3,112
2012-06-24 02:30:26,18.7,14.6,4.1,0.0,22.0,111
2012-06-24 02:35:26,18.8,11.9,6.9,0.0,18.1,112
2012-06-24 02:40:26,18.7,12.3,6.5,0.0,21.4,112
2012-06-24 02:45:26,18.7,13.5,5.2,0.0,24.1,111
2012-06-24 02:50:26,18.7,12.9,5.8,0.0,11.2,111
2012-06-24 02:55:26,18.7,13.5,5.2,0.0,16.2,111
2012-06-24 03:00:26,18.7,13.9,4.8,0.0,24.2,112
2012-06-24 03:05:26,18.8,14.5,4.3,0.0,31.4,111
2012-06-24 03:10:26,18.7,12.3,6.4,0.0,34.0,111
2012-06-24 03:15:26,18.5,11.9,6.6,0.0,27.2,112
2012-06-24 03:20:26,18.6,13.2,5.4,0.0,21.6,111
2012-06-24 03:25:26,18.7,11.8,6.9,0.0,22.3,112
2012-06-24 03:30:26,18.8,11.9,7.0,0.0,20.3,111
2012-06-24 03:35:26,18.9,12.7,6.2,0.0,21.0,112
2012-06-24 03:40:26,18.9,12.7,6.2,0.1,24.9,111
2012-06-24 03:45:26,18.7,12.3,6.4,0.1,27.4,111
2012-06-24 03:50:26,18.8,11.8,7.0,0.2,16.2,112
2012-06-24 03:55:26,18.9,12.3,6.6,0.3,9.1,111
2012-06-24 04:00:26,18.8,12.3,6.5,0.6,8.5,111
2012-06-24 04:05:26,18.8,12.6,6.3,0.8,16.5,112
2012-06-24 04:10:26,18.9,12.8,6.1,1.7,26.9,111
2012-06-24 04:15:26,19.0,12.0,6.9,2.6,18.1,111
2012-06-24 04:20:26,19.1,11.9,7.2,4.0,15.1,112
2012-06-24 04:25:26,19.0,11.8,7.1,6.5,26.5,111
2012-06-24 04:30:26,19.0,12.5,6.6,8.8,19.4,111
2012-06-24 04:35:26,19.1,12.6,6.5,13.4,33.0,111
2012-06-24 04:40:26,18.9,12.1,6.8,15.2,32.8,112
2012-06-24 04:45:26,19.0,12.6,6.4,16.9,20.8,111
2012-06-24 04:50:26,19.3,11.7,7.6,19.4,19.8,112
2012-06-24 04:55:26,19.4,11.5,7.9,22.3,20.3,111
2012-06-24 05:00:26,19.1,11.6,7.5,24.5,34.8,112
2012-06-24 05:05:26,19.2,11.9,7.3,26.0,32.7,111
2012-06-24 05:10:26,18.9,11.2,7.7,26.6,31.3,111
2012-06-24 05:15:26,19.4,11.6,7.8,26.4,18.9,112
2012-06-24 05:20:26,19.6,11.3,8.3,26.2,15.7,111
2012-06-24 05:25:26,19.8,9.7,10.1,24.7,8.0,112
2012-06-24 05:30:26,19.6,11.3,8.2,27.3,22.9,111
2012-06-24 05:35:26,19.7,10.6,9.2,29.6,12.5,112
2012-06-24 05:40:26,19.7,10.4,9.3,29.5,12.0,111
2012-06-24 05:45:26,19.8,10.5,9.4,29.7,19.3,111
2012-06-24 05:50:26,19.9,10.2,9.7,30.2,14.4,112
2012-06-24 05:55:26,19.9,10.8,9.1,30.0,17.0,111
2012-06-24 06:00:26,19.9,11.3,8.6,30.6,12.4,111
2012-06-24 06:05:26,19.8,9.2,10.6,31.1,12.4,112
2012-06-24 06:10:26,19.8,10.3,9.5,31.4,17.2,111
2012-06-24 06:15:26,20.0,11.2,8.8,31.5,16.6,111
2012-06-24 06:20:26,19.9,10.5,9.3,31.8,9.6,111
2012-06-24 06:25:26,19.8,9.3,10.5,31.7,5.6,112
2012-06-24 06:30:26,19.7,9.6,10.1,31.5,3.4,111
2012-06-24 06:35:26,19.7,9.5,10.1,31.4,4.0,112
2012-06-24 06:40:26,19.7,9.3,10.4,31.2,5.1,111
2012-06-24 06:45:26,19.7,8.6,11.2,31.5,6.5,112
2012-06-24 06:50:26,19.8,8.7,11.0,31.6,10.0,111
2012-06-24 06:55:26,19.8,8.9,10.8,32.1,4.8,111
2012-06-24 07:00:26,19.7,9.2,10.5,31.9,3.6,111
2012-06-24 07:05:26,19.7,9.9,9.8,31.8,3.3,112
2012-06-24 07:10:26,19.8,10.1,9.7,32.0,4.5,112
2012-06-24 07:15:26,19.8,10.0,9.8,32.1,3.4,111
2012-06-24 07:20:26,19.8,10.1,9.8,32.0,3.8,112
2012-06-24 07:25:26,19.9,10.2,9.7,32.0,3.3,111
2012-06-24 07:30:26,20.0,10.3,9.7,32.1,3.3,112
2012-06-24 07:35:26,20.0,10.0,10.1,32.2,3.6,111
2012-06-24 07:40:26,20.1,10.1,10.0,32.2,5.2,111
2012-06-24 07:45:26,20.1,9.1,11.0,32.3,6.4,111
2012-06-24 07:50:26,19.7,9.7,10.0,32.3,5.0,112
2012-06-24 07:55:26,20.1,10.4,9.7,32.3,3.5,111
2012-06-24 08:00:26,20.1,10.5,9.6,32.3,3.4,112
2012-06-24 08:05:26,20.1,10.0,10.1,32.3,6.2,111
2012-06-24 08:10:26,20.1,10.0,10.1,32.3,5.2,112
2012-06-24 08:15:26,20.1,8.7,11.4,32.2,8.5,111
2012-06-24 08:20:26,20.0,8.9,11.1,32.3,8.7,112
2012-06-24 08:25:26,19.6,8.5,11.1,32.4,8.6,111
2012-06-24 08:30:26,20.1,9.8,10.2,32.4,10.4,112
2012-06-24 08:35:26,20.1,10.2,9.9,32.3,7.6,112
2012-06-24 08:40:26,20.0,8.8,11.2,32.4,7.2,111
2012-06-24 08:45:26,20.1,8.4,11.7,32.4,11.0,111
2012-06-24 08:50:26,20.1,8.7,11.4,32.4,5.5,112
2012-06-24 08:55:26,20.1,8.8,11.3,32.4,4.3,112
2012-06-24 09:00:26,19.8,9.0,10.8,32.5,3.2,111
2012-06-24 09:05:26,20.1,9.3,10.9,32.4,3.0,111
2012-06-24 09:10:26,20.2,9.1,11.1,32.5,2.9,111
2012-06-24 09:15:26,20.5,10.0,10.5,32.5,2.5,112
2012-06-24 09:20:26,20.7,9.2,11.5,32.5,2.9,111
2012-06-24 09:25:26,20.8,8.9,11.9,32.5,2.6,112
2012-06-24 09:30:26,21.0,7.9,13.1,32.6,2.5,111
2012-06-24 09:35:26,21.6,8.5,13.1,32.6,2.7,112
2012-06-24 09:40:26,21.8,10.0,11.8,32.5,2.5,111
2012-06-24 09:45:26,21.6,10.0,11.6,32.5,2.6,112
2012-06-24 09:50:26,21.6,9.3,12.2,32.5,2.7,111
2012-06-24 09:55:26,21.4,8.2,13.3,32.5,2.7,112
2012-06-24 10:00:26,21.3,7.5,13.9,32.5,2.7,111
2012-06-24 10:05:26,21.4,8.9,12.5,32.5,2.7,111
2012-06-24 10:10:26,21.4,6.7,14.7,32.6,2.7,112
2012-06-24 10:15:26,21.4,7.4,14.0,32.5,2.7,111
2012-06-24 10:20:26,21.4,8.1,13.3,32.6,2.7,111
2012-06-24 10:25:26,21.4,7.1,14.4,32.6,2.7,112
2012-06-24 10:30:26,21.6,7.3,14.2,32.6,2.4,112
2012-06-24 10:35:26,21.7,6.3,15.4,32.6,2.4,111
2012-06-24 10:40:26,21.7,7.5,14.3,32.6,2.4,112
2012-06-24 10:45:26,21.6,8.3,13.3,32.5,2.4,111
2012-06-24 10:50:26,21.3,8.6,12.7,32.5,2.6,112
2012-06-24 10:55:26,21.3,7.6,13.7,32.6,2.7,111
2012-06-24 11:00:26,21.5,7.4,14.1,32.6,2.6,112
2012-06-24 11:05:26,21.8,8.5,13.3,32.5,2.4,112
2012-06-24 11:10:26,21.7,8.3,13.4,32.5,2.4,111
2012-06-24 11:15:26,21.5,8.3,13.3,32.5,2.4,112
2012-06-24 11:20:26,21.4,7.9,13.6,32.6,2.7,112
2012-06-24 11:25:26,21.7,7.1,14.6,32.6,2.4,111
2012-06-24 11:30:26,22.0,6.7,15.3,32.6,2.5,112
2012-06-24 11:35:26,22.3,5.8,16.4,32.6,2.4,112
2012-06-24 11:40:26,22.6,8.5,14.1,32.6,2.3,111
2012-06-24 11:45:26,22.6,8.0,14.6,32.6,2.4,111
2012-06-24 11:50:26,22.5,9.0,13.5,32.6,2.4,112
2012-06-24 11:55:26,22.7,7.4,15.3,32.6,2.4,111
2012-06-24 12:00:26,22.9,6.3,16.6,32.6,2.5,112
2012-06-24 12:05:26,24.3,5.6,18.7,32.6,2.4,111
2012-06-24 12:10:26,27.1,4.1,23.0,32.6,2.5,112
2012-06-24 12:15:26,28.5,5.1,23.4,32.6,2.4,112
2012-06-24 12:20:26,29.0,5.3,23.7,32.6,2.4,111
2012-06-24 12:25:26,29.0,5.6,23.4,32.6,2.4,112
2012-06-24 12:30:26,28.8,6.1,22.8,32.6,2.5,111
2012-06-24 12:35:26,28.9,5.2,23.6,32.6,2.5,112
2012-06-24 12:40:26,28.8,7.3,21.5,32.6,2.6,112
2012-06-24 12:45:26,27.3,9.0,18.3,32.6,2.4,111
2012-06-24 12:50:26,24.9,8.3,16.5,32.6,2.6,112
2012-06-24 12:55:26,24.3,9.0,15.3,32.6,2.3,111
2012-06-24 13:00:26,24.0,9.6,14.4,32.6,2.3,112
2012-06-24 13:05:26,24.1,9.0,15.1,32.6,2.3,111
2012-06-24 13:10:26,24.2,7.0,17.2,32.6,2.3,112
2012-06-24 13:15:26,24.7,5.2,19.5,32.6,2.4,111
2012-06-24 13:20:26,27.7,4.1,23.7,32.6,2.5,112
2012-06-24 13:25:26,29.1,5.0,24.1,32.6,2.5,111
2012-06-24 13:30:26,29.5,4.5,25.0,32.6,2.4,111
2012-06-24 13:35:26,30.7,6.5,24.3,32.6,2.4,112
2012-06-24 13:40:26,31.0,7.9,23.1,32.6,2.4,111
2012-06-24 13:45:26,30.1,8.7,21.4,32.6,2.3,111
2012-06-24 13:50:26,29.7,9.0,20.7,32.6,2.5,111
2012-06-24 13:55:26,30.3,4.9,25.5,32.6,2.4,112
2012-06-24 14:00:26,31.1,5.1,26.0,32.6,2.4,111
2012-06-24 14:05:26,31.2,4.1,27.1,32.6,2.4,112
2012-06-24 14:10:26,32.0,7.3,24.7,32.6,2.5,111
2012-06-24 14:15:26,32.2,5.5,26.8,32.6,2.4,112
2012-06-24 14:20:26,32.1,7.2,25.0,32.6,2.5,111
2012-06-24 14:25:26,31.8,4.1,27.6,32.6,2.3,112
2012-06-24 14:30:26,32.4,4.3,28.1,32.6,2.5,111
2012-06-24 14:35:26,32.9,3.5,29.4,32.6,2.4,112
2012-06-24 14:40:26,32.8,7.6,25.1,32.6,2.3,111
2012-06-24 14:45:26,31.5,7.3,24.2,32.6,2.4,112
2012-06-24 14:50:26,31.1,5.7,25.4,32.6,2.4,111
2012-06-24 14:55:26,31.7,3.1,28.7,32.6,2.3,111
2012-06-24 15:00:26,31.9,7.2,24.7,32.6,2.4,112
2012-06-24 15:05:26,32.3,4.8,27.5,32.6,2.3,111
2012-06-24 15:10:26,31.9,6.3,25.7,32.6,2.5,111
2012-06-24 15:15:26,32.6,7.2,25.5,32.6,2.4,112
2012-06-24 15:20:26,32.8,5.3,27.5,32.6,2.3,111
2012-06-24 15:25:26,32.0,7.1,24.9,32.6,2.3,112
2012-06-24 15:30:26,30.8,10.0,20.7,32.6,2.4,111
2012-06-24 15:35:26,30.1,6.4,23.7,32.6,2.3,111
2012-06-24 15:40:26,30.3,7.7,22.5,32.6,2.4,112
2012-06-24 15:45:26,31.4,3.1,28.2,32.6,2.4,111
2012-06-24 15:50:26,32.5,3.2,29.3,32.6,2.4,111
2012-06-24 15:55:26,32.9,3.4,29.4,32.6,2.4,112
2012-06-24 16:00:26,33.1,2.0,31.1,32.6,2.1,111
2012-06-24 16:05:26,33.2,3.3,30.0,32.6,1.7,111
2012-06-24 16:10:26,33.7,2.9,30.7,32.6,1.6,111
2012-06-24 16:15:26,33.9,1.2,32.7,32.6,1.5,111
2012-06-24 16:20:26,33.6,1.8,31.7,32.6,1.5,112
2012-06-24 16:25:26,33.4,2.2,31.2,32.6,1.3,111
2012-06-24 16:30:26,33.4,2.8,30.6,32.6,1.4,111
2012-06-24 16:35:26,33.4,3.2,30.2,32.6,1.3,111
2012-06-24 16:40:26,33.5,1.9,31.6,32.6,1.7,111
2012-06-24 16:45:26,33.6,1.9,31.7,32.6,1.7,111
2012-06-24 16:50:26,33.5,1.8,31.7,32.6,1.4,112
2012-06-24 16:55:27,33.4,3.5,29.8,32.6,1.6,111
2012-06-24 17:00:27,33.4,2.7,30.7,32.6,1.6,111
2012-06-24 17:05:27,32.9,4.7,28.2,32.6,1.8,112
2012-06-24 17:10:27,33.3,2.9,30.4,32.6,1.6,112
2012-06-24 17:15:27,33.6,3.4,30.1,32.6,1.5,111
2012-06-24 17:20:27,33.8,4.7,29.2,32.6,1.3,111
2012-06-24 17:25:27,34.0,2.8,31.2,32.6,1.3,111
2012-06-24 17:30:27,33.8,1.6,32.2,32.6,1.3,111
2012-06-24 17:35:27,33.4,1.4,32.0,32.6,1.3,111
2012-06-24 17:40:27,33.3,0.9,32.4,32.6,1.4,112
2012-06-24 17:45:27,33.0,0.4,32.6,32.6,1.5,111
2012-06-24 17:50:27,32.9,0.6,32.2,32.6,1.3,111
2012-06-24 17:55:27,33.0,1.0,32.1,32.6,1.3,111
2012-06-24 18:00:27,33.2,1.7,31.5,32.6,1.6,111
2012-06-24 18:05:27,33.2,2.8,30.4,32.6,1.5,112
2012-06-24 18:10:27,33.3,1.0,32.4,32.6,1.5,111
2012-06-24 18:15:27,33.3,0.9,32.4,32.6,1.5,111
2012-06-24 18:20:27,33.0,0.5,32.5,32.6,1.5,111
2012-06-24 18:25:27,32.7,0.2,32.4,32.6,1.5,111
2012-06-24 18:30:27,32.3,-0.4,32.7,32.6,1.7,112
2012-06-24 18:35:27,31.9,-1.1,33.0,32.6,1.9,111
2012-06-24 18:40:27,31.7,-0.3,32.1,32.6,2.3,112
2012-06-24 18:45:27,31.5,-1.3,32.8,32.6,2.3,112
2012-06-24 18:50:27,31.0,-2.3,33.3,32.5,2.4,111
2012-06-24 18:55:27,30.1,-1.5,31.6,32.5,2.3,112
2012-06-24 19:00:27,29.5,-0.2,29.7,32.5,2.4,112
2012-06-24 19:05:27,29.3,-0.3,29.6,32.5,2.3,112
2012-06-24 19:10:27,29.6,-1.1,30.6,32.5,2.4,111
2012-06-24 19:15:27,29.9,0.1,29.8,32.6,2.4,112
2012-06-24 19:20:27,30.5,0.9,29.6,32.6,2.3,111
2012-06-24 19:25:27,31.1,-0.6,31.7,32.6,2.4,112
2012-06-24 19:30:27,31.4,-1.7,33.0,32.6,2.4,111
2012-06-24 19:35:27,31.4,-2.3,33.8,32.5,2.3,112
2012-06-24 19:40:27,31.4,-2.5,34.0,32.5,2.3,111
2012-06-24 19:45:27,31.3,-3.0,34.3,32.5,2.3,112
2012-06-24 19:50:27,30.9,-4.1,34.9,32.5,2.4,112
2012-06-24 19:55:27,30.4,-4.4,34.8,32.5,2.3,112
2012-06-24 20:00:27,30.0,-4.3,34.3,32.5,2.3,111
2012-06-24 20:05:27,29.7,-4.1,33.8,32.5,2.3,113
2012-06-24 20:10:27,29.5,-4.2,33.7,32.5,2.4,112
2012-06-24 20:15:27,29.3,-4.3,33.6,32.4,2.4,111
2012-06-24 20:20:27,29.1,-4.7,33.8,32.4,2.3,112
2012-06-24 20:25:27,28.8,-4.9,33.7,32.4,2.3,111
2012-06-24 20:30:27,28.6,-4.8,33.4,32.3,2.5,112
2012-06-24 20:35:27,28.4,-5.1,33.5,32.3,2.3,111
2012-06-24 20:40:27,28.1,-5.1,33.2,32.3,2.3,111
2012-06-24 20:45:27,27.8,-5.3,33.1,32.2,2.3,112
2012-06-24 20:50:27,27.5,-5.5,33.0,32.1,2.4,111
2012-06-24 20:55:27,27.3,-5.5,32.8,32.1,2.4,112
2012-06-24 21:00:27,27.1,-5.3,32.4,32.0,2.3,111
2012-06-24 21:05:27,26.9,-5.5,32.3,31.8,2.4,111
2012-06-24 21:10:27,26.6,-5.5,32.1,31.7,2.4,112
2012-06-24 21:15:27,25.8,-5.5,31.3,31.4,2.7,111
2012-06-24 21:20:27,26.0,-5.2,31.3,31.0,2.5,111
2012-06-24 21:25:27,25.7,-5.1,30.7,30.6,2.3,111
2012-06-24 21:30:27,25.4,-5.5,30.8,29.9,2.3,112
2012-06-24 21:35:27,25.1,-5.6,30.7,28.9,2.5,111
2012-06-24 21:40:27,24.9,-5.8,30.7,27.3,2.3,112
2012-06-24 21:45:27,24.8,-5.9,30.6,25.1,2.3,111
2012-06-24 21:50:27,24.6,-6.2,30.8,22.0,2.3,112
2012-06-24 21:55:27,24.5,-6.3,30.8,18.2,2.3,112
2012-06-24 22:00:27,24.4,-6.4,30.8,14.1,2.4,112
2012-06-24 22:05:27,24.3,-6.6,30.9,10.3,2.4,111
2012-06-24 22:10:27,24.3,-6.7,31.0,7.2,2.4,112
2012-06-24 22:15:27,24.3,-6.6,30.9,4.9,2.5,112
2012-06-24 22:20:27,24.3,-6.5,30.7,3.2,2.6,112
2012-06-24 22:25:27,24.2,-6.6,30.8,2.1,2.5,112
2012-06-24 22:30:27,24.1,-6.7,30.7,1.4,2.4,112
2012-06-24 22:35:27,23.9,-6.9,30.8,0.9,2.3,111
2012-06-24 22:40:27,23.8,-6.9,30.7,0.6,2.3,112
2012-06-24 22:45:27,24.0,-6.9,30.8,0.4,2.3,111
2012-06-24 22:50:27,23.6,-7.1,30.7,0.3,2.3,112
2012-06-24 22:55:27,23.6,-7.2,30.9,0.2,2.3,111
2012-06-24 23:00:27,23.6,-7.4,31.0,0.1,2.4,112
2012-06-24 23:05:27,23.7,-7.7,31.3,0.1,2.4,111
2012-06-24 23:10:27,23.7,-7.9,31.5,0.1,2.4,111
2012-06-24 23:15:27,23.6,-7.9,31.5,0.0,2.4,112
2012-06-24 23:20:27,23.6,-7.9,31.4,0.0,2.4,112
2012-06-24 23:25:27,23.5,-7.9,31.5,0.0,2.4,111
2012-06-24 23:30:27,23.5,-7.9,31.4,0.0,2.4,112
2012-06-24 23:35:27,23.4,-8.0,31.4,0.0,2.3,111
2012-06-24 23:40:27,23.4,-8.0,31.4,0.0,2.3,112
2012-06-24 23:45:27,23.3,-8.2,31.5,0.0,2.3,112
2012-06-24 23:50:27,23.3,-8.0,31.3,0.0,2.5,111
2012-06-24 23:55:27,23.2,-7.8,31.1,0.0,2.7,111
